Flag for Germany Weather past 2 weeks in Cottbus, Brandenburg, Germany

Now
50 °F

Rain. Low clouds.


Feels Like: 47 °F
Forecast: 38 / 43 °F
Wind: 9 mph from Southwest

Location: Cottbus

Current Time: Dec 19, 2014 at 5:34:30 PM

Latest Report: Dec 19, 2014 at 5:00 PM


Visibility: 1 mi

Pressure: 29.74 "Hg

Humidity: 94%

Dew point: 48 °F

Location of CottbusLocation

Historic Weather in Cottbus — Graph

°F

Cottbus temperature yesterday

Maximum temperature yesterday: 52 °F (at 7:00 PM)
Minimum temperature yesterday: 40 °F (at 12:00 AM)
Average temperature yesterday: 47 °F

Past Weeks' High & Low Weather Summary

 TemperatureHumidityPressure
High55 °F (Dec 19, 8:00 AM)100% (Dec 7, 5:00 AM)30.42 "Hg (Dec 7, 5:00 AM)
Low22 °F (Dec 9, 7:00 AM)60% (Dec 15, 2:00 PM)29.47 "Hg (Dec 12, 7:00 PM)
Average40 °F88%29.96 "Hg
* Reported Dec 4 4:00 PM — Dec 19 4:00 PM, Cottbus, Weather by CustomWeather, © 2014

Note: Actual official high and low records may vary slightly from our data, if they occured in-between our weather recording intervals... More about our weather records

Advertising

Cottbus weather history for previous 24 hours

 ConditionsComfort  
Time TempWeatherWind HumidityBarometerVisibility
4:00 PM
Dec 19
51 °FLight rain. Overcast.7 mph90%29.72 "Hg25 mi
3:00 PM52 °FLight rain. Overcast.8 mph88%29.72 "Hg19 mi
2:00 PM53 °FLight rain. Overcast.8 mph84%29.73 "Hg22 mi
1:00 PM54 °FLight rain. Low clouds.9 mph78%29.75 "Hg8 mi
12:00 PM54 °FOvercast.8 mph76%29.76 "Hg43 mi
11:00 AM54 °FLow clouds.8 mph74%29.78 "Hg43 mi
10:00 AM55 °FOvercast.9 mph72%29.78 "Hg43 mi
9:00 AM54 °FOvercast.8 mph76%29.79 "Hg43 mi
8:00 AM55 °FOvercast.8 mph74%29.79 "Hg43 mi
7:00 AM55 °FOvercast.8 mph76%29.79 "Hg43 mi
6:00 AM55 °FOvercast.8 mph79%29.78 "Hg43 mi
5:00 AM55 °FOvercast.8 mph81%29.78 "Hg43 mi
4:00 AM54 °FLow clouds.8 mph89%29.78 "Hg43 mi
3:00 AM54 °FDrizzle. Low clouds.8 mph89%29.79 "Hg7 mi
2:00 AM54 °FPassing clouds.7 mph91%29.78 "Hg28 mi
1:00 AM53 °FPassing clouds.7 mph92%29.77 "Hg19 mi
12:00 AM52 °FOvercast.7 mph94%29.77 "Hg19 mi
11:00 PM
Dec 18
51 °FLow clouds.6 mph96%29.76 "Hg22 mi
10:00 PM51 °FLight rain. Low clouds.6 mph98%29.77 "Hg3 mi
9:00 PM50 °FLight rain. Low clouds.7 mph96%29.77 "Hg3 mi
8:00 PM50 °FLight rain. Low clouds.7 mph92%29.78 "Hg4 mi
7:00 PM52 °FOvercast.6 mph81%29.78 "Hg43 mi
6:00 PM51 °FOvercast.5 mph86%29.80 "Hg43 mi
5:00 PM49 °FOvercast.5 mph92%29.80 "Hg28 mi
Weather by CustomWeather, © 2014

See weather overviewHow to use our weather pages